Regional Weather Roundup
Issued by NWS Boston, MA

Home | Current Version | Previous Version | Text Only | Print | Product List | Glossary On
Versions: 1 2 3 4 5 6 7 8 9 10 11 12 13 14 15 16 17 18 19 20 21 22 23 24 25 26 27 28 29 30 31 32 33 34 35 36 37 38 39 40 41 42 43 44 45 46 47 48 49 50
000
ASUS41 KBOX 222010
RWRBOX

REGIONAL WEATHER ROUNDUP
NATIONAL WEATHER SERVICE TAUNTON MA
300 PM EST SUN JAN 22 2017

NOTE:  "FAIR" INDICATES FEW OR NO CLOUDS BELOW 12,000 FEET WITH NO
SIGNIFICANT WEATHER AND/OR OBSTRUCTIONS TO VISIBILITY.

MAZALL-222100-
EASTERN MASSACHUSETTS

CITY           SKY/WX    TMP DP  RH WIND       PRES   REMARKS
BOSTON         LGT RAIN  42  42 100 NE15      29.85R FOG
BEVERLY        LGT RAIN  40  39  97 N9        29.84F FOG
LAWRENCE       LGT RAIN  37  37 100 NE13      29.86S FOG     WCI  29
BEDFORD        LGT RAIN  39  36  89 NE14      29.83R FOG     WCI  31
BLUE HILL        N/A     40  40 100 NE16G24   29.81R WCI  31
NORWOOD        CLOUDY    44  42  93 NE7G20    29.84R FOG
MARSHFIELD     CLOUDY    45  43  93 NE12G17   29.83R
PLYMOUTH       CLOUDY    45  41  86 NE7G18    29.82R
TAUNTON        CLOUDY    48  40  73 NE5       29.80R
NEW BEDFORD    CLOUDY    49  41  74 NE10G23   29.78R
$$

MAZALL-222100-
CAPE COD AND THE ISLANDS

CITY           SKY/WX    TMP DP  RH WIND       PRES   REMARKS
FALMOUTH       CLOUDY    45  43  93 MISG      29.80R
HYANNIS        CLOUDY    48  42  80 NE13      29.77S
CHATHAM        CLOUDY    47  43  86 NE13G18   29.80R
PROVINCETOWN   CLOUDY    45  42  89 E14       29.83R
NANTUCKET      CLOUDY    49  41  74 NE15      29.76S
MARTHAS VNYRD  CLOUDY    50  42  74 NE13      29.76R
$$

MAZALL-222100-
CENTRAL AND WESTERN MASSACHUSETTS

CITY           SKY/WX    TMP DP  RH WIND       PRES   REMARKS
WORCESTER      FOG       39  37  92 NE10      29.79R VSB 1/4
FITCHBURG      CLOUDY    40  39  97 E5        29.84R FOG
ORANGE         CLOUDY    40  39  97 NE9       29.81R
SPRINGFIELD    CLOUDY    46  39  77 N12       29.77R
WESTFIELD      CLOUDY    45  41  86 N10       29.78R
NORTH ADAMS    CLOUDY    46  39  76 E9        29.76R
PITTSFIELD     CLOUDY    44  40  85 VRB5      29.73R
$$

RIZALL-222100-
RHODE ISLAND

CITY           SKY/WX    TMP DP  RH WIND       PRES   REMARKS
PROVIDENCE     PTSUNNY   49  40  71 NE16      29.79R
NEWPORT        CLOUDY    51  43  74 NE16      29.76R
SMITHFIELD     CLOUDY    44  40  85 NE14G21   29.79R
WESTERLY       SUNNY     55  40  56 NE13      29.75R
$$

CTZALL-222100-
CONNECTICUT

CITY           SKY/WX    TMP DP  RH WIND       PRES   REMARKS
BRADLEY INTL   PTSUNNY   49  41  74 N15       29.76F
HARTFORD       PTSUNNY   51  42  71 N12       29.74S
BRIDGEPORT     CLOUDY    48  41  76 E12       29.73R
DANBURY        CLOUDY    53  45  74 E10       29.71S
GROTON         SUNNY     56  42  59 NE14      29.73R
NEW HAVEN      CLOUDY    50  43  77 SE6       29.73R
CHESTER        CLOUDY    55  43  62 NE10      29.72R
MERIDEN        CLOUDY    54  42  64 N8        29.73S
WILLIMANTIC    CLOUDY    53  41  63 NE15      29.75S
OXFORD         CLOUDY    52  41  66 E12       29.73F
$$

MEZ002-015-021-024-NHZ003-005-008-011-012-014-VTZ005-008-222100-
NORTHERN NEW ENGLAND

CITY           SKY/WX    TMP DP  RH WIND       PRES   REMARKS
PORTLAND ME    CLOUDY    37  30  75 NE7       29.91R WCI  32
BANGOR ME      CLOUDY    34  23  64 N15       29.95R WCI  24
CONCORD NH     CLOUDY    37  32  82 E6        29.88R
MANCHESTER NH  NOT AVBL
NASHUA NH      NOT AVBL
PORTSMOUTH NH  CLOUDY    37  33  86 NE10      29.88R WCI  29
JAFFREY NH     NOT AVBL
KEENE NH       NOT AVBL
BURLINGTON VT  CLOUDY    35  32  88 N8        29.85R WCI  29
MT. WASHINGTON FOG       27  27 100 W35         N/A  VSB 1/8 WCI   9
$$

NYZ052-076-222100-
EASTERN NEW YORK

CITY           SKY/WX    TMP DP  RH WIND       PRES   REMARKS
ALBANY         CLOUDY    43  38  82 NE6       29.77R
NEW YORK CITY  CLOUDY    46  41  82 NE15G23   29.70R
$$

ANZALL-222100-
MARINE OBSERVATIONS

STATION/POSITION TIME  TEMP    WIND        PRES    VSBY  WAVE
                       AIR SEA DIR/SP/G                  HT/PER
                 (UTC) (F)     (DEG/KT/KT) (MB)    (MI)  (FT/S)
BOSTON BUOY      1850   45 44   50/ 12/ 16 1009.0          4/10
BUZZARDS BAY     1900   45      60/ 17/ 18 1007.6F
NANTUCKET SOUND  1850   45 43   40/  4/  6 1008.1          1/14
MASS BAY-STELLWA 1904   43 44   60/ 16/ 17 1009.8R  1 7/8  6/12
ISLE OF SHOALS   1900   39      30/ 19/ 21 1010.8R
S OF BLOCK IS    1955      45                N/A           4/13
$$

......................KEY.........................
  SKY/WX - SKY CONDITION/PRESENT WEATHER
  TMP    - TEMPERATURE IN FAHRENHEIT
  DWPT   - DEWPOINT IN FAHRENHEIT
  RH     - RELATIVE HUMIDITY IN PERCENT
  WIND   - DIRECTION AND SPEED IN MPH
  PRES   - MEAN SEA LEVEL PRESSURE IN INCHES OF HG
  WCI    - WIND CHILL INDEX
  VSB    - VISIBILITY IN MILES
  HX     - HEAT INDEX
  TC     - TEMPERATURE IN CELSIUS
  VRB    - VARIABLE WIND DIRECTION
  N/A    - NOT AVAILABLE



USA.gov is the U.S. government's official web portal to all federal, state and local government web resources and services.